Location: Dana
(41.8364°N, 106.7042°W)
Time: 14:21:51
(UTC+00:00)

Vanguard 3 - Pass Details

Date: 10 May 2026
Orbit: 507 x 3204 km, 33.3° (Epoch: 8 June)

Event Time Altitude Azimuth Distance (km) Brightness Sun altitude
Rises 23:10:04 0° 249° (WSW) 7,128 13.0 32.7°
Reaches altitude 10° 23:14:58 10° 247° (WSW) 6,120 12.9 31.8°
Maximum altitude 23:33:36 61° 174° (S) 2,969 10.4 28.3°
Drops below altitude 10° 23:46:21 10° 98° (E) 4,360 10.4 26.0°
Sets 23:49:13 0° 95° (E) 5,051 10.6 25.4°
